Location: Jackson Park
(37.2862°N, 79.9123°W)
Time: 22:20:22
(UTC+00:00)

Transit 4A - Pass Details

Date: 11 May 2026
Orbit: 861 x 980 km, 66.8° (Epoch: 5 June)

Event Time Altitude Azimuth Distance (km) Brightness Sun altitude
Rises 23:56:44 0° 327° (NNW) 3,687 12.0 3.0°
Reaches altitude 10° 23:59:21 10° 323° (NW) 2,736 11.5 2.5°
Maximum altitude 00:05:35 55° 248° (WSW) 1,164 8.9 1.3°
Drops below altitude 10° 00:11:42 10° 172° (S) 2,688 10.0 0.2°
Sets 00:14:16 0° 168° (SSE) 3,617 10.6 -0.3°
